Location: Lake Sonoma
(38.7200°N, 123.0564°W)
Time: 12:10:13
(UTC-08:00)

Daily predictions for brighter satellites

Satellite Brightness Start Highest point End
(mag) Time Altitude Azimuth Time Altitude Azimuth Time Altitude Azimuth
Cosmos 2333 4.2 17:39:39 10° SSW 17:45:15 82° ESE 17:50:52 10° NNE
Cosmos 2228 Rocket 3.2 17:41:49 10° N 17:46:10 56° E 17:50:31 10° SSE
Cosmos 1408 Rocket 4.3 17:45:09 10° SSW 17:49:33 59° W 17:53:57 10° N
CZ-4 R/B 4.4 17:47:25 10° SSE 17:51:31 65° ENE 17:55:38 10° N
Cosmos 389 Rocket 2.9 17:48:18 10° NNW 17:51:53 69° W 17:55:23 10° S
USA 116 3.8 17:49:55 10° N 17:53:06 58° WNW 17:56:07 10° SSW
Cosmos 2360 Rocket 3.8 17:48:24 10° WSW 17:53:27 33° WNW 17:58:31 10° N
Cosmos 1980 4.2 17:49:26 10° S 17:54:40 39° ESE 17:59:55 10° NE
Elektron 3 4.3 17:50:11 10° NW 17:55:24 71° NE 17:58:28 10° SE
Cosmos 2058 4.1 17:53:00 10° SE 17:56:09 22° E 17:59:19 10° NE
COSMOS 2441 4.3 17:57:06 10° SSE 18:01:58 79° ENE 18:06:50 10° N
Cosmos 1763 Rocket 4.0 18:01:05 10° SSW 18:06:16 62° WNW 18:11:25 10° NNE
Cosmos 2333 Rocket 2.3 18:01:40 10° S 18:07:12 62° ESE 18:12:47 10° NNE
Atlas Centaur 2 4.0 18:05:56 10° WSW 18:09:44 20° SSW 18:13:00 10° SSE
Cosmos 1743 Rocket 3.9 18:07:14 10° SSW 18:11:41 73° W 18:16:11 10° N
Cosmos 372 Rocket 4.5 18:10:41 10° N 18:15:21 35° ENE 18:19:59 10° SE
Meteor 2-10 4.5 18:11:43 10° N 18:16:26 37° ENE 18:21:13 10° SE
MONITOR-E 4.4 18:13:37 10° S 18:16:46 76° WSW 18:19:57 10° NNW
Abrixas 3.6 18:14:54 10° SSW 18:17:29 29° SE 18:18:50 20° E
Cosmos 1340 Rocket 3.6 18:14:45 10° SSE 18:18:10 28° E 18:21:05 13° NE
Cosmos 1328 Rocket 4.1 18:13:59 10° NNW 18:18:24 65° W 18:22:47 10° S
Cosmos 2219 Rocket 2.3 18:14:37 10° SSW 18:20:16 80° WNW 18:25:56 10° NNE
Cosmos 2151 2.9 18:18:08 10° S 18:22:17 63° E 18:26:27 10° NNE
Meteor 1-27 4.5 18:19:06 10° N 18:24:44 49° ENE 18:30:21 10° SSE
Cosmos 1515 Rocket 3.8 18:21:01 10° N 18:25:29 75° W 18:29:55 10° S
Cosmos 540 Rocket 3.4 18:21:23 10° S 18:26:31 69° ESE 18:31:40 10° NNE
SL-14 R/B 3.2 18:22:47 10° S 18:26:40 70° E 18:30:37 10° NNE
Cosmos 2278 Rocket 2.3 18:21:47 10° NNW 18:27:23 55° ENE 18:32:55 10° SE
Cosmos 1626 3.6 18:25:10 10° SE 18:27:22 19° ESE 18:27:22 19° ESE
SKYMED 2 3.7 18:24:17 10° N 18:28:38 78° WNW 18:32:57 10° SSW
Cosmos 1805 Rocket 4.2 18:27:05 10° SSE 18:31:06 34° E 18:34:22 14° NNE
Cosmos 1484 Rocket 3.5 18:27:56 10° S 18:31:46 57° W 18:35:41 10° NNW
Cosmos 1151 Rocket 3.0 18:30:17 10° N 18:34:34 88° W 18:38:51 10° S
Cosmos 1844 4.1 18:32:45 10° NNW 18:38:30 70° WSW 18:44:14 10° SSE
Cosmos 1500 Rocket 4.5 18:34:29 10° SSW 18:38:40 49° W 18:42:54 10° N
USA 215 3.2 18:34:18 10° ESE 18:40:49 70° NE 18:47:20 10° NW
Cosmos 1300 3.0 18:41:32 10° NNW 18:45:21 67° W 18:49:09 10° S
NOAA 12 4.0 18:40:32 10° SSE 18:45:44 74° ENE 18:51:00 10° N
Cosmos 1125 Rocket 3.5 18:40:41 10° NNW 18:45:54 83° WSW 18:51:05 10° SSE
Cosmos 1726 2.7 18:42:56 10° NNW 18:46:39 61° W 18:50:22 10° S
ALOS 2.8 18:43:20 10° SE 18:47:31 34° ENE 18:51:43 10° N
Cosmos 44 3.6 18:44:30 10° SW 18:49:47 74° WNW 18:53:37 18° NNE
Milstar 3 4.2 18:44:47 10° WSW 18:50:31 30° S 18:56:53 10° SE
Hubble Space Telescope 3.6 18:49:35 10° SSW 18:50:41 11° SSW 18:51:47 10° S
Cosmos 2237 Rocket 2.3 18:45:29 10° SSW 18:51:05 74° WNW 18:56:45 10° NNE
OTV 4 1.0 18:48:36 10° W 18:51:30 49° SSW 18:51:57 43° SSE
FREGAT/IRIS 3.7 18:50:55 10° SSE 18:57:40 - N 18:52:44 32° SSE
Spot 2 Rocket 3.9 18:50:00 10° SE 18:54:39 39° ENE 18:59:19 10° N
Sich 1 3.4 18:50:44 10° SSE 18:54:53 40° E 18:55:02 40° E
Lacrosse 5 rocket 1.8 18:51:52 10° NNW 18:55:10 37° NNE 18:55:10 37° NNE
SL-16 R/B 2.3 18:50:23 10° S 18:55:49 50° ESE 18:58:16 30° NE
Cosmos 1633 Rocket 3.8 18:54:02 10° SSE 18:57:15 34° ESE 18:57:15 34° ESE
Cosmos 1538 Rocket 4.2 18:56:49 10° S 19:01:51 48° ESE 19:03:07 40° ENE
Transit 2A Rocket 4.3 18:57:43 10° NNW 19:02:02 67° ENE 19:03:26 40° SE
Cosmos 2297 3.7 19:00:55 10° NNW 19:06:32 54° ENE 19:09:08 30° SE
Resurs 01 Rocket 2.3 19:09:29 37° NNE 19:09:29 37° NNE 19:12:25 10° N
Aureole 2 Rocket 3.2 19:07:28 10° SSW 19:11:00 55° WNW 19:12:29 33° N
SL-19 R/B 4.2 19:09:51 10° SSE 19:15:53 81° ENE 19:21:35 10° NNW
USA 229 DEB 4.1 19:12:54 10° S 19:19:10 40° ESE 19:19:18 40° ESE
USA 229 4.1 19:13:01 10° S 19:19:16 40° ESE 19:19:21 40° ESE
Cosmos 1707 Rocket 3.4 19:16:27 10° N 19:20:48 89° W 19:25:07 10° S
SJ-6B 3.8 19:19:36 10° S 19:23:30 48° W 19:27:30 10° NNW
Cosmos 1461 3.1 19:19:58 10° SSW 19:23:33 62° SSW 19:23:33 62° SSW
Cosmos 1666 Rocket 3.6 19:25:24 10° SSW 19:29:42 73° W 19:29:54 72° NW
FengYun 1-2 T 4.2 19:27:55 10° SSE 19:33:31 81° WSW 19:39:04 10° NNW
FENGYUN 3A 3.9 19:41:21 10° S 19:46:39 65° W 19:52:00 10° NNW
Cosmos 2333 Rocket 4.5 19:47:54 10° W 19:51:54 20° NW 19:55:57 10° N
SL-16 R/B 4.2 20:35:46 10° WSW 20:40:11 23° NW 20:40:13 23° NW
